Weather History for St. Petersburg, FL

Change the Weather History Date:

Friday, August 29, 2014

  Actual Average Record
Temperature  
Mean Temperature 85 °F -  
Max Temperature 89 °F 89 °F 94 °F (1987)
Min Temperature 80 °F 76 °F 71 °F (1967)
Cooling Degree Days 20    
Growing Degree Days 35 (Base 50)    
Moisture  
Dew Point 70 °F    
Average Humidity 69    
Maximum Humidity 77    
Minimum Humidity 58    
Precipitation  
Precipitation 0.00 in - - ()
Sea Level Pressure  
Sea Level Pressure 30.03 in    
Wind  
Wind Speed 8 mph (SSW)    
Max Wind Speed 15 mph    
Max Gust Speed 24 mph    
Visibility 10 miles    
Events Thunderstorm    
Averages and records for this station are not official NWS values.
T = Trace of Precipitation, MM = Missing Value Source: NWS Daily Summary

Daily Weather History Graph

Daily Weather History Graph

Search for Another Location

Airport:

Trip Planner

Search our weather history database for the weather conditions in past years. The results will help you decide how hot, cold, wet, or windy it might be!

Date:

Astronomy

Aug. 29, 2014 Rise Set
Actual Time 7:07 AM EDT 7:54 PM EDT
Civil Twilight 6:43 AM EDT 8:18 PM EDT
Nautical Twilight 6:15 AM EDT 8:46 PM EDT
Astronomical Twilight 5:47 AM EDT 9:15 PM EDT
Moon 10:33 AM EDT (8/29) 10:16 PM EDT (8/29)
Length of Visible Light 13h 34m
Length of Day
12h 46m
Waxing Crescent, 15% of the Moon is Illuminated
Aug 29
Waxing Crescent
Sep 2
First Quarter
Sep 8
Full
Sep 15
Last Quarter
Sep 24
New

Hourly Weather History & Observations

Time (EDT) Temp. Heat Index Dew Point Humidity Pressure Visibility Wind Dir Wind Speed Gust Speed Precip Events Conditions
12:53 AM - - - N/A% 30.00 in - North - - N/A   Unknown
1:53 AM - - - N/A% 29.99 in - North - - N/A   Unknown
2:53 AM - - - N/A% 29.99 in - North - - N/A   Unknown
3:53 AM - - - N/A% 29.98 in - North - - N/A   Unknown
4:53 AM - - - N/A% 29.96 in - North - - N/A   Unknown
5:53 AM - - - N/A% 29.99 in - North - - N/A   Unknown
6:53 AM - - - N/A% 30.00 in 10.0 mi SSE 6.9 mph - N/A   Clear
6:55 AM - - - N/A% - - North - - N/A   Clear
7:53 AM - - - N/A% 30.01 in - North - - N/A   Unknown
7:55 AM - - 46.4 °F N/A% - - North - - N/A   Unknown
8:53 AM - - - N/A% 30.03 in - North - - N/A   Unknown
8:55 AM - - 42.8 °F N/A% - - North - - N/A   Unknown
9:53 AM - - - N/A% 30.04 in - North - - N/A   Unknown
9:55 AM - - - N/A% - - North - - N/A   Unknown
10:02 AM - - - N/A% 30.04 in - North - - N/A Thunderstorm Unknown
10:43 AM - - - N/A% 30.04 in - North - - N/A   Unknown
11:53 AM - - - N/A% 30.04 in - North - - N/A   Unknown
11:55 AM - - - N/A% - - North - - N/A   Scattered Clouds
12:53 PM - - - N/A% 30.04 in - North - - N/A   Unknown
12:55 PM - - - N/A% - - North - - N/A   Partly Cloudy
1:53 PM - - - N/A% 30.03 in - North - - N/A Thunderstorm Unknown
2:53 PM 89.1 °F 97.0 °F 73.0 °F 59% 30.01 in 10.0 mi WSW 10.4 mph - N/A Thunderstorm Clear
3:03 PM 89.1 °F 99.1 °F 75.0 °F 63% 30.01 in 10.0 mi SW 8.1 mph - N/A   Partly Cloudy
3:53 PM 88.0 °F 97.5 °F 75.0 °F 65% 29.99 in 10.0 mi SW 11.5 mph - 0.00 in   Clear
4:53 PM 87.1 °F 96.3 °F 75.0 °F 67% 30.01 in 10.0 mi WSW 8.1 mph - N/A   Clear
5:53 PM 87.1 °F 97.3 °F 75.9 °F 69% 30.01 in 10.0 mi WSW 4.6 mph - N/A   Clear
6:53 PM 87.1 °F 98.8 °F 77.0 °F 72% 30.02 in 10.0 mi SW 4.6 mph - N/A   Scattered Clouds
7:45 PM 86.0 °F 96.0 °F 75.9 °F 72% 30.05 in 10.0 mi East 9.2 mph - N/A   Overcast
7:53 PM 84.9 °F 95.3 °F 77.0 °F 77% 30.05 in 10.0 mi ENE 11.5 mph - N/A   Overcast
8:06 PM 82.9 °F 90.2 °F 75.0 °F 77% 30.05 in 10.0 mi North 15.0 mph 24.2 mph N/A Thunderstorm Thunderstorm
8:16 PM 82.9 °F 86.5 °F 69.1 °F 63% 30.05 in 10.0 mi NW 6.9 mph 16.1 mph N/A Thunderstorm Thunderstorm
8:40 PM 82.9 °F 86.5 °F 69.1 °F 63% 30.05 in 10.0 mi NNW 5.8 mph - N/A   Scattered Clouds
8:53 PM 84.0 °F 87.0 °F 68.0 °F 58% 30.05 in 10.0 mi Calm Calm - N/A   Partly Cloudy
9:53 PM 82.9 °F 89.4 °F 73.9 °F 74% 30.06 in 10.0 mi SE 13.8 mph - N/A   Clear
10:53 PM 81.0 °F 85.8 °F 73.0 °F 77% 30.09 in 10.0 mi ESE 9.2 mph - N/A   Clear
11:23 PM 81.0 °F 85.2 °F 72.0 °F 74% 30.09 in 10.0 mi SE 13.8 mph - N/A   Mostly Cloudy
11:53 PM 80.1 °F 83.6 °F 71.1 °F 74% 30.08 in 10.0 mi SE 4.6 mph - N/A   Scattered Clouds